TimeCDT,TemperatureF,Dew PointF,Humidity,Sea Level PressureIn,VisibilityMPH,Wind Direction,Wind SpeedMPH,Gust SpeedMPH,PrecipitationIn,Events,Conditions,WindDirDegrees,DateUTC
12:15 AM,50.5,44.1,78,30.30,10.0,North,5.8,-,N/A,,Clear,360,2013-10-14 05:15:00
12:35 AM,50.2,43.9,79,30.30,10.0,North,5.8,-,N/A,,Clear,360,2013-10-14 05:35:00
12:55 AM,51.1,43.9,76,30.30,10.0,NNE,5.8,-,N/A,,Clear,20,2013-10-14 05:55:00
1:15 AM,50.0,43.7,79,30.31,10.0,North,5.8,-,N/A,,Clear,10,2013-10-14 06:15:00
1:35 AM,50.2,43.0,76,30.31,10.0,North,5.8,-,N/A,,Clear,10,2013-10-14 06:35:00
1:55 AM,50.2,42.8,76,30.31,10.0,North,4.6,-,N/A,,Clear,360,2013-10-14 06:55:00
2:15 AM,49.3,42.6,78,30.31,10.0,North,5.8,-,N/A,,Clear,10,2013-10-14 07:15:00
2:35 AM,48.9,42.8,79,30.31,10.0,North,8.1,-,N/A,,Clear,360,2013-10-14 07:35:00
2:55 AM,49.5,43.3,79,30.31,10.0,North,6.9,-,N/A,,Clear,10,2013-10-14 07:55:00
3:15 AM,49.1,43.3,81,30.31,10.0,North,4.6,-,N/A,,Clear,10,2013-10-14 08:15:00
3:35 AM,48.4,43.3,83,30.31,10.0,North,5.8,-,N/A,,Clear,10,2013-10-14 08:35:00
3:55 AM,48.2,43.3,83,30.32,10.0,North,5.8,-,N/A,,Clear,360,2013-10-14 08:55:00
4:15 AM,48.4,43.7,84,30.31,10.0,North,4.6,-,N/A,,Clear,10,2013-10-14 09:15:00
4:35 AM,47.8,43.3,84,30.31,10.0,North,5.8,-,N/A,,Clear,360,2013-10-14 09:35:00
4:55 AM,48.0,43.5,84,30.31,10.0,North,4.6,-,N/A,,Clear,360,2013-10-14 09:55:00
5:15 AM,47.5,43.3,86,30.30,10.0,North,5.8,-,N/A,,Clear,10,2013-10-14 10:15:00
5:35 AM,46.9,43.2,87,30.30,10.0,North,5.8,-,N/A,,Clear,10,2013-10-14 10:35:00
5:55 AM,46.8,43.3,88,30.30,10.0,North,4.6,-,N/A,,Clear,350,2013-10-14 10:55:00
6:15 AM,46.8,43.2,87,30.32,10.0,North,4.6,-,N/A,,Clear,350,2013-10-14 11:15:00
6:35 AM,46.6,43.0,87,30.31,10.0,North,5.8,-,N/A,,Clear,360,2013-10-14 11:35:00
6:55 AM,47.3,43.9,88,30.31,10.0,North,3.5,-,N/A,,Clear,10,2013-10-14 11:55:00
7:15 AM,47.3,43.9,88,30.30,10.0,North,3.5,-,N/A,,Clear,360,2013-10-14 12:15:00
7:35 AM,47.5,44.2,89,30.31,10.0,North,3.5,-,N/A,,Clear,360,2013-10-14 12:35:00
7:55 AM,49.1,45.5,87,30.31,10.0,North,5.8,-,N/A,,Clear,10,2013-10-14 12:55:00
8:15 AM,50.2,45.7,85,30.31,10.0,NNE,3.5,-,N/A,,Clear,30,2013-10-14 13:15:00
8:35 AM,51.8,46.8,83,30.32,10.0,North,3.5,-,N/A,,Clear,10,2013-10-14 13:35:00
8:55 AM,54.0,48.0,80,30.32,10.0,NNE,4.6,-,N/A,,Clear,20,2013-10-14 13:55:00
9:15 AM,55.8,46.8,72,30.31,10.0,NE,6.9,-,N/A,,Clear,40,2013-10-14 14:15:00
9:35 AM,57.4,46.9,68,30.30,10.0,ENE,6.9,-,N/A,,Clear,60,2013-10-14 14:35:00
9:55 AM,58.1,46.6,65,30.31,10.0,ENE,3.5,-,N/A,,Clear,60,2013-10-14 14:55:00
10:15 AM,59.0,47.3,65,30.30,10.0,NE,6.9,-,N/A,,Clear,50,2013-10-14 15:15:00
10:35 AM,59.9,47.7,64,30.30,10.0,NE,5.8,-,N/A,,Clear,50,2013-10-14 15:35:00
10:55 AM,61.0,48.6,64,30.30,10.0,NE,4.6,-,N/A,,Clear,40,2013-10-14 15:55:00
11:15 AM,63.1,49.5,61,30.29,10.0,Calm,Calm,-,N/A,,Clear,0,2013-10-14 16:15:00
11:35 AM,63.7,49.3,59,30.28,10.0,ENE,4.6,-,N/A,,Clear,60,2013-10-14 16:35:00
11:55 AM,65.3,49.6,57,30.27,10.0,East,3.5,-,N/A,,Clear,80,2013-10-14 16:55:00
12:15 PM,67.1,49.5,53,30.26,10.0,East,5.8,-,N/A,,Clear,100,2013-10-14 17:15:00
12:35 PM,68.7,50.2,52,30.25,10.0,East,5.8,-,N/A,,Clear,100,2013-10-14 17:35:00
12:55 PM,68.5,50.4,52,30.24,10.0,East,5.8,-,N/A,,Clear,80,2013-10-14 17:55:00
1:15 PM,68.9,50.9,53,30.23,10.0,East,4.6,-,N/A,,Clear,80,2013-10-14 18:15:00
1:35 PM,70.7,51.6,51,30.21,10.0,East,6.9,-,N/A,,Clear,100,2013-10-14 18:35:00
1:55 PM,71.6,51.1,48,30.20,10.0,East,3.5,-,N/A,,Clear,80,2013-10-14 18:55:00
2:15 PM,71.8,51.3,48,30.20,10.0,Calm,Calm,-,N/A,,Clear,0,2013-10-14 19:15:00
2:35 PM,72.1,51.3,48,30.18,10.0,East,5.8,-,N/A,,Clear,90,2013-10-14 19:35:00
2:55 PM,72.3,51.8,48,30.18,10.0,ENE,4.6,-,N/A,,Clear,70,2013-10-14 19:55:00
3:15 PM,72.7,51.4,47,30.18,10.0,NE,4.6,-,N/A,,Clear,50,2013-10-14 20:15:00
3:35 PM,73.0,52.3,48,30.17,10.0,East,4.6,-,N/A,,Clear,80,2013-10-14 20:35:00
3:55 PM,73.4,51.4,46,30.16,10.0,ENE,4.6,-,N/A,,Clear,70,2013-10-14 20:55:00
4:15 PM,72.9,52.5,49,30.16,10.0,East,5.8,-,N/A,,Clear,80,2013-10-14 21:15:00
4:35 PM,71.6,52.9,52,30.16,10.0,East,4.6,-,N/A,,Clear,80,2013-10-14 21:35:00
4:55 PM,71.6,53.1,52,30.15,10.0,East,5.8,-,N/A,,Clear,80,2013-10-14 21:55:00
5:15 PM,70.2,54.7,58,30.15,10.0,East,5.8,-,N/A,,Clear,80,2013-10-14 22:15:00
5:35 PM,68.2,55.6,64,30.15,10.0,East,5.8,-,N/A,,Clear,100,2013-10-14 22:35:00
5:55 PM,66.2,55.8,69,30.15,10.0,East,5.8,-,N/A,,Clear,100,2013-10-14 22:55:00
6:15 PM,63.7,55.6,75,30.15,10.0,East,5.8,-,N/A,,Clear,100,2013-10-14 23:15:00
6:35 PM,62.1,54.9,77,30.15,10.0,ESE,5.8,-,N/A,,Clear,110,2013-10-14 23:35:00
6:55 PM,61.0,54.5,79,30.15,10.0,East,5.8,-,N/A,,Clear,90,2013-10-14 23:55:00
7:15 PM,61.3,54.7,79,30.15,5.0,East,4.6,-,N/A,,Haze,80,2013-10-15 00:15:00
7:35 PM,60.1,53.8,80,30.15,10.0,East,4.6,-,N/A,,Clear,80,2013-10-15 00:35:00
7:55 PM,58.1,53.6,85,30.14,10.0,ENE,4.6,-,N/A,,Clear,70,2013-10-15 00:55:00
8:15 PM,56.8,53.6,89,30.15,10.0,East,3.5,-,N/A,,Clear,80,2013-10-15 01:15:00
8:35 PM,57.7,53.6,86,30.15,10.0,Calm,Calm,-,N/A,,Clear,0,2013-10-15 01:35:00
8:55 PM,57.6,53.6,87,30.15,10.0,Calm,Calm,-,N/A,,Clear,0,2013-10-15 01:55:00
9:15 PM,58.1,53.6,85,30.15,10.0,Calm,Calm,-,N/A,,Clear,0,2013-10-15 02:15:00
9:35 PM,58.1,53.8,86,30.15,10.0,Calm,Calm,-,N/A,,Clear,0,2013-10-15 02:35:00
9:55 PM,57.6,53.6,87,30.15,10.0,Calm,Calm,-,N/A,,Clear,0,2013-10-15 02:55:00
10:15 PM,57.2,53.8,88,30.14,10.0,ENE,4.6,-,N/A,,Clear,70,2013-10-15 03:15:00
10:35 PM,56.8,53.6,89,30.13,10.0,East,4.6,-,N/A,,Clear,80,2013-10-15 03:35:00
10:55 PM,57.2,54.0,89,30.13,10.0,East,5.8,-,N/A,,Clear,90,2013-10-15 03:55:00
11:15 PM,57.2,54.0,89,30.12,10.0,East,3.5,-,N/A,,Clear,90,2013-10-15 04:15:00
11:35 PM,56.7,53.6,89,30.12,10.0,ESE,3.5,-,N/A,,Clear,110,2013-10-15 04:35:00
11:55 PM,57.2,53.6,88,30.11,10.0,ESE,3.5,-,N/A,,Clear,110,2013-10-15 04:55:00